Helena, MT

8:16 PM MDT on April 22, 2018 (GMT -0600)
Helena Regional

Weather History for KHLN - October, 2012

Change the Weather History Date:

Saturday, October 6, 2012

  Actual Average Record
Temperature  
Mean Temperature 34 °F 50 °F  
Max Temperature 48 °F 63 °F 84 °F (1960)
Min Temperature 19 °F 36 °F 19 °F (1974)
Degree Days  
Heating Degree Days 31 15  
Month to date heating degree days 129 86  
Since 1 July heating degree days 253 392  
Cooling Degree Days 0 0  
Month to date cooling degree days 0 0  
Year to date cooling degree days 531 406  
Moisture  
Dew Point 19 °F    
Average Humidity 55    
Maximum Humidity 84    
Minimum Humidity 26    
Precipitation  
Precipitation 0.00 in 0.03 in 0.55 in (1925)
Month to date precipitation 0.09 0.16  
Year to date precipitation 6.56 9.81  
Snow  
Snow 0.00 in 0.10 in 5.70 in (1925)
Month to date snowfall T 0.4  
Since 1 July snowfall T 2.0  
Since 1 September snowfall T 1.7  
Snow Depth 0.00 in    
Sea Level Pressure  
Sea Level Pressure 30.44 in    
Wind  
Wind Speed 2 mph (NNE)    
Max Wind Speed 7 mph    
Max Gust Speed 16 mph    
Visibility 10 miles    
Events      
T = Trace of Precipitation, MM = Missing Value Source: NWS Daily Summary

Daily Weather History Graph

Daily Weather History Graph

Search for Another Location

Airport or City:

Astronomy

Oct. 06, 2012 Rise Set
Actual Time 7:33 AM MDT 6:56 PM MDT
Civil Twilight 7:03 AM MDT 7:27 PM MDT
Nautical Twilight 6:28 AM MDT 8:01 PM MDT
Astronomical Twilight 5:53 AM MDT 8:37 PM MDT
Moon 10:59 PM MDT (10/6) 1:47 PM MDT (10/6)
Length of Visible Light 12h 23m
Length of Day
11h 22m
Waning Gibbous, 65% of the Moon is Illuminated
Oct 6
Waning Gibbous
Oct 8
Last Quarter
Oct 15
New
Oct 21
First Quarter
Oct 29
Full

Hourly Weather History & Observations

Time (MDT) Temp. Windchill Dew Point Humidity Pressure Visibility Wind Dir Wind Speed Gust Speed Precip Events Conditions
12:53 AM 27.0 °F - 18.0 °F 69% 30.52 in 10.0 mi Calm Calm - N/A   Clear
1:53 AM 26.1 °F - 18.0 °F 71% 30.53 in 10.0 mi Calm Calm - N/A   Clear
2:53 AM 25.0 °F 20.7 °F 17.1 °F 72% 30.53 in 10.0 mi WNW 3.5 mph - N/A   Clear
3:53 AM 21.0 °F - 16.0 °F 81% 30.54 in 10.0 mi Calm Calm - N/A   Clear
4:53 AM 21.0 °F - 15.1 °F 78% 30.53 in 10.0 mi Calm Calm - N/A   Clear
5:53 AM 21.9 °F - 16.0 °F 78% 30.53 in 10.0 mi Calm Calm - N/A   Clear
6:53 AM 19.0 °F 13.9 °F 15.1 °F 85% 30.53 in 10.0 mi NNE 3.5 mph - N/A   Clear
7:53 AM 19.4 °F - 15.8 °F 86% 30.37 in 10.0 mi Calm Calm - N/A   Clear
8:53 AM 26.1 °F - 19.0 °F 75% 30.54 in 10.0 mi Calm Calm - N/A   Clear
9:53 AM 28.0 °F - 19.9 °F 72% 30.53 in 10.0 mi Calm Calm - N/A   Clear
10:53 AM 34.0 °F 31.0 °F 19.9 °F 56% 30.51 in 10.0 mi Variable 3.5 mph - N/A   Clear
11:53 AM 39.0 °F 35.7 °F 19.9 °F 46% 30.48 in 10.0 mi East 4.6 mph - N/A   Clear
12:53 PM 43.0 °F 40.3 °F 16.0 °F 34% 30.45 in 10.0 mi Variable 4.6 mph - N/A   Mostly Cloudy
1:53 PM 44.1 °F 41.5 °F 16.0 °F 32% 30.43 in 10.0 mi Variable 4.6 mph - N/A   Mostly Cloudy
2:53 PM 46.0 °F - 16.0 °F 30% 30.39 in 10.0 mi Calm Calm - N/A   Overcast
3:53 PM 48.0 °F - 16.0 °F 28% 30.39 in 10.0 mi ENE 3.5 mph - N/A   Overcast
4:53 PM 48.0 °F - 18.0 °F 30% 30.38 in 10.0 mi NNE 5.8 mph - N/A   Overcast
5:53 PM 46.9 °F - 17.1 °F 30% 30.38 in 10.0 mi NNE 4.6 mph - N/A   Overcast
6:53 PM 46.0 °F - 21.0 °F 37% 30.38 in 10.0 mi Calm Calm - N/A   Overcast
7:53 PM 46.0 °F - 19.9 °F 35% 30.37 in 10.0 mi Calm Calm - N/A   Overcast
8:53 PM 45.0 °F - 19.9 °F 37% 30.35 in 10.0 mi Calm Calm - N/A   Overcast
9:53 PM 42.1 °F - 27.0 °F 55% 30.36 in 10.0 mi Calm Calm - N/A   Overcast
10:53 PM 41.0 °F - 27.0 °F 57% 30.33 in 10.0 mi Calm Calm - N/A   Overcast
11:53 PM 41.0 °F - 27.0 °F 57% 30.32 in 10.0 mi Calm Calm - N/A   Overcast